| time (UTC) | temp F | wind direction | speed MPH | gust MPH | rain 1hr in | rain 24hr in | rain mn in | humidity % | barometer mb |
| 20260505113017 | 39 | 121 | 0.0 | 0.0 | 0.00 | 0.00 | 0.00 | 82 | 1013.2 |
| 20260505111509 | 40 | 121 | 0.0 | 0.0 | 0.00 | 0.00 | 0.00 | 81 | 1013.2 |
| 20260505101558 | 42 | 121 | 0.0 | 0.0 | 0.00 | 0.00 | 0.00 | 78 | 1012.9 |
| 20260505100058 | 42 | 121 | 0.0 | 0.0 | 0.00 | 0.00 | 0.00 | 78 | 1012.7 |
| 20260505094550 | 43 | 121 | 0.0 | 0.0 | 0.00 | 0.00 | 0.00 | 75 | 1012.7 |
| 20260505093047 | 44 | 121 | 0.0 | 0.0 | 0.00 | 0.00 | 0.00 | 75 | 1012.5 |
| 20260505091544 | 44 | 120 | 0.0 | 0.0 | 0.00 | 0.00 | 0.00 | 74 | 1012.4 |
| 20260505090055 | 44 | 121 | 0.0 | 0.0 | 0.00 | 0.00 | 0.00 | 71 | 1012.4 |
| 20260505084545 | 46 | 121 | 0.0 | 0.0 | 0.00 | 0.00 | 0.00 | 70 | 1012.3 |
| 20260505083037 | 47 | 121 | 0.0 | 0.0 | 0.00 | 0.00 | 0.00 | 70 | 1012.2 |
| 20260505081536 | 48 | 121 | 0.0 | 0.0 | 0.00 | 0.00 | 0.00 | 68 | 1012.1 |
| 20260505080028 | 49 | 121 | 0.0 | 0.0 | 0.00 | 0.00 | 0.00 | 64 | 1011.9 |
| 20260505074524 | 50 | 121 | 0.0 | 0.0 | 0.00 | 0.00 | 0.00 | 64 | 1011.8 |
| 20260505073020 | 51 | 121 | 0.0 | 0.0 | 0.00 | 0.00 | 0.00 | 63 | 1011.6 |
| 20260505071518 | 53 | 121 | 0.0 | 1.0 | 0.00 | 0.00 | 0.00 | 61 | 1011.6 |
| 20260505070016 | 53 | 124 | 0.0 | 0.0 | 0.00 | 0.00 | 0.00 | 60 | 1011.4 |
| 20260505064514 | 55 | 114 | 0.0 | 0.0 | 0.00 | 0.00 | 0.00 | 57 | 1011.3 |
| 20260505063015 | 56 | 114 | 0.0 | 1.0 | 0.00 | 0.00 | 0.00 | 55 | 1011.2 |
| 20260505061513 | 57 | 117 | 0.0 | 2.0 | 0.00 | 0.00 | 0.00 | 56 | 1011.0 |
| 20260505060024 | 57 | 248 | 0.0 | 1.0 | 0.00 | 0.00 | 0.00 | 54 | 1011.0 |
| 20260505054524 | 58 | 311 | 0.0 | 0.0 | 0.00 | 0.00 | 0.00 | 48 | 1010.8 |
| 20260505053012 | 59 | 306 | 0.0 | 0.0 | 0.00 | 0.00 | 0.00 | 46 | 1010.5 |
| 20260505051511 | 61 | 328 | 0.0 | 1.0 | 0.00 | 0.00 | 0.00 | 44 | 1010.4 |
| 20260505041509 | 69 | 224 | 0.0 | 4.0 | 0.00 | 0.00 | 0.00 | 31 | 1009.8 |
| 20260505040009 | 70 | 121 | 0.0 | 6.0 | 0.00 | 0.00 | 0.00 | 29 | 1009.5 |
| 20260505034508 | 71 | 96 | 3.0 | 9.0 | 0.00 | 0.00 | 0.00 | 28 | 1009.3 |
| 20260505033015 | 71 | 138 | 4.0 | 9.0 | 0.00 | 0.00 | 0.00 | 29 | 1008.9 |
| 20260505031507 | 72 | 92 | 3.0 | 8.0 | 0.00 | 0.00 | 0.00 | 28 | 1008.8 |
| 20260505030007 | 73 | 127 | 2.0 | 5.0 | 0.00 | 0.00 | 0.00 | 28 | 1008.8 |
| 20260505024506 | 74 | 122 | 2.0 | 8.0 | 0.00 | 0.00 | 0.00 | 27 | 1008.6 |
| 20260505023004 | 75 | 105 | 1.0 | 9.0 | 0.00 | 0.00 | 0.00 | 26 | 1008.6 |
| 20260505021506 | 76 | 113 | 0.0 | 5.0 | 0.00 | 0.00 | 0.00 | 25 | 1008.6 |
| 20260505020005 | 76 | 84 | 1.0 | 6.0 | 0.00 | 0.00 | 0.00 | 25 | 1008.5 |
| 20260505014508 | 77 | 138 | 3.0 | 7.0 | 0.00 | 0.00 | 0.00 | 23 | 1008.5 |
| 20260505013002 | 78 | 271 | 1.0 | 4.0 | 0.00 | 0.00 | 0.00 | 24 | 1008.3 |
| 20260505011503 | 79 | 96 | 2.0 | 5.0 | 0.00 | 0.00 | 0.00 | 23 | 1008.4 |
| 20260505010103 | 80 | 122 | 2.0 | 7.0 | 0.00 | 0.00 | 0.00 | 23 | 1008.5 |
| 20260505004602 | 81 | 110 | 0.0 | 4.0 | 0.00 | 0.00 | 0.00 | 23 | 1008.4 |
| 20260505003102 | 81 | 85 | 0.0 | 2.0 | 0.00 | 0.00 | 0.00 | 23 | 1008.5 |
| 20260505001558 | 81 | 307 | 0.0 | 5.0 | 0.00 | 0.00 | 0.00 | 24 | 1008.5 |
| 20260504234617 | 83 | 302 | 0.0 | 3.0 | 0.00 | 0.00 | 0.00 | 22 | 1008.7 |
| 20260504233054 | 82 | 124 | 0.0 | 3.0 | 0.00 | 0.00 | 0.00 | 21 | 1008.8 |
| 20260504231556 | 82 | 293 | 0.0 | 3.0 | 0.00 | 0.00 | 0.00 | 21 | 1008.9 |
| 20260504230051 | 82 | 162 | 1.0 | 3.0 | 0.00 | 0.00 | 0.00 | 22 | 1008.9 |
| 20260504224559 | 83 | 125 | 2.0 | 4.0 | 0.00 | 0.00 | 0.00 | 22 | 1009.0 |
| 20260504223048 | 83 | 127 | 0.0 | 5.0 | 0.00 | 0.00 | 0.00 | 22 | 1009.0 |
| 20260504221557 | 83 | 242 | 1.0 | 3.0 | 0.00 | 0.00 | 0.00 | 22 | 1009.2 |
| 20260504220047 | 83 | 290 | 0.0 | 2.0 | 0.00 | 0.00 | 0.00 | 22 | 1009.3 |
| 20260504214548 | 82 | 240 | 1.0 | 4.0 | 0.00 | 0.00 | 0.00 | 22 | 1009.5 |
| 20260504213046 | 83 | 324 | 0.0 | 4.0 | 0.00 | 0.00 | 0.00 | 22 | 1009.6 |
| 20260504211539 | 82 | 100 | 1.0 | 5.0 | 0.00 | 0.00 | 0.00 | 23 | 1009.7 |
| 20260504210035 | 81 | 316 | 1.0 | 4.0 | 0.00 | 0.00 | 0.00 | 23 | 1009.8 |
| 20260504204611 | 81 | 328 | 1.0 | 5.0 | 0.00 | 0.00 | 0.00 | 24 | 1009.9 |
| 20260504203030 | 81 | 275 | 1.0 | 5.0 | 0.00 | 0.00 | 0.00 | 26 | 1010.0 |
| 20260504201526 | 80 | 131 | 0.0 | 3.0 | 0.00 | 0.00 | 0.00 | 24 | 1010.0 |
| 20260504200030 | 80 | 112 | 0.0 | 4.0 | 0.00 | 0.00 | 0.00 | 26 | 1010.2 |
| 20260504194523 | 79 | 268 | 1.0 | 4.0 | 0.00 | 0.00 | 0.00 | 27 | 1010.2 |
| 20260504193023 | 80 | 86 | 1.0 | 4.0 | 0.00 | 0.00 | 0.00 | 27 | 1010.3 |
| 20260504191517 | 79 | 96 | 0.0 | 3.0 | 0.00 | 0.00 | 0.00 | 29 | 1010.5 |
| 20260504190013 | 78 | 82 | 1.0 | 4.0 | 0.00 | 0.00 | 0.00 | 29 | 1010.6 |
| 20260504184510 | 77 | 53 | 0.0 | 3.0 | 0.00 | 0.00 | 0.00 | 31 | 1010.7 |
| 20260504183008 | 76 | 290 | 0.0 | 3.0 | 0.00 | 0.00 | 0.00 | 32 | 1010.9 |
| 20260504181504 | 74 | 296 | 1.0 | 4.0 | 0.00 | 0.00 | 0.00 | 34 | 1011.2 |
| 20260504180059 | 73 | 231 | 1.0 | 5.0 | 0.00 | 0.00 | 0.00 | 37 | 1011.2 |
| 20260504174556 | 71 | 79 | 0.0 | 5.0 | 0.00 | 0.00 | 0.00 | 38 | 1011.2 |
| 20260504173052 | 70 | 88 | 1.0 | 6.0 | 0.00 | 0.00 | 0.00 | 39 | 1011.3 |
| 20260504171551 | 69 | 172 | 1.0 | 3.0 | 0.00 | 0.00 | 0.00 | 40 | 1011.4 |